Location: *
(48.8489°N, 2.3218°E)
Time: 05:02:45
(UTC+00:00)

Resurs 1-3 - Pass Details

Date: 23 August 2019
Orbit: 630 x 632 km, 98.0° (Epoch: 22 September)

Event Time Altitude Azimuth Distance (km) Brightness Sun altitude
Exits shadow 19:36:47 - 155° (SSE) 2,600 6.3 -7.7°
Reaches altitude 10° 19:38:13 10° 153° (SSE) 2,010 5.7 -7.9°
Maximum altitude 19:42:33 64° 73° (ENE) 705 3.7 -8.5°
Drops below altitude 10° 19:46:55 10° 352° (N) 2,025 6.7 -9.1°
Sets 19:49:08 0° 349° (N) 2,938 7.7 -9.5°
